[[{"header":{"parameterUnit":"m.s-1","parameterCategory":1,"la1":30.2991,"la2":30.254,"lo1":-89.0895,"lo2":-89.0444,"dy":0.0017,"dx":0.0017,"nx":28,"ny":28,"refTime":"2024-10-12T21:00:00:Z","depth":0,"parameterNumber":2,"parameterNumberName":"U-component_of_WINDS"},"data":[0,0,0,0,0,0,0,0,0,0,0,0,0,0,0,0,0,0,0,0,0,0,0,0,0,0,0,0,0,0,0,0,0,0,0,0,0,0,0,0,0,0,0,0,0,0,0,0,0,0,0,0,0,0,0,0,0,0,4.3647,4.3648,0,4.3804,4.3806,4.3808,4.3782,4.3779,4.3776,4.3773,4.394,4.3947,4.3954,0,0,0,0,0,0,0,0,0,0,0,0,0,4.3328,4.3334,4.3646,4.3648,4.365,4.3804,4.3806,4.3809,4.3782,4.3779,4.3775,4.3772,4.3938,4.3946,4.3954,0,0,0,0,0,0,0,0,0,0,0,0,0,4.3474,4.3336,4.3646,4.3656,4.3658,4.3804,4.3806,4.3809,4.3783,4.3779,4.3775,4.3771,4.3935,4.3945,4.3956,4.4103,0,0,4.3988,4.3992,0,0,0,0,0,0,0,0,4.3466,4.3486,4.3652,4.3655,4.3658,4.3769,4.3755,4.3908,4.3784,4.3736,4.3773,4.3769,4.3887,4.3901,4.394,4.4111,4.4118,4.3989,4.3995,4.4,4.4003,0,0,0,0,0,0,0,4.3456,4.3479,4.3709,4.3655,4.3658,4.3654,4.367,4.3784,4.3833,4.3739,4.3738,4.3757,4.3888,4.393,4.3944,4.4121,4.3988,4.3998,4.4004,4.4008,4.4425,4.443,0,0,0,0,0,0,4.3442,4.3471,4.3704,4.3714,4.355,4.3663,4.3681,4.3738,4.3831,4.3841,4.376,4.3755,4.3914,4.3931,4.3949,4.4131,4.3999,4.4009,4.4015,4.442,4.4426,4.4431,0,0,0,0,0,0,4.3436,4.3463,4.3698,4.3592,4.3622,4.3673,4.3737,4.3743,4.3785,4.3847,4.3856,4.3794,4.3911,4.3935,4.4066,4.4136,4.4014,4.4024,4.4415,4.4422,4.4429,4.4494,0,0,0,0,0,0,4.3427,4.3461,4.3516,4.3593,4.3627,4.381,4.3741,4.3749,4.3803,4.3797,4.3881,4.3891,4.391,4.405,4.4076,4.4149,4.4032,4.4409,4.4418,4.4426,4.4486,4.4502,4.4517,0,0,0,0,0,4.3415,4.3528,4.3519,4.3547,4.3697,4.3814,4.3833,4.3851,4.3808,4.3865,4.3906,4.3888,4.4124,4.4064,4.4093,4.417,4.4404,4.4415,4.4426,4.4479,4.4499,4.4516,0,0,0,0,0,0,4.3459,4.3539,4.3529,4.367,4.3735,4.3809,4.3881,4.3872,4.3952,4.3944,4.3964,4.3984,4.4117,4.4156,4.4088,4.4319,4.4259,4.4276,4.4289,4.4309,4.4324,4.4313,4.4041,0,0,0,0,0,4.3485,4.3571,4.3637,4.3755,4.3788,4.3829,4.3881,4.3889,4.3958,4.3986,4.4036,4.4105,4.4195,4.4254,4.434,4.4491,4.4511,4.4558,4.4574,4.4586,4.4601,4.4687,4.471,4.4466,4.4466,4.4466,0,0,4.3539,4.3594,4.3647,4.3765,4.3817,4.3908,4.3853,4.3951,4.402,4.4001,4.4129,4.4168,4.4247,4.4389,4.4454,4.4426,4.4673,4.46,4.4609,4.4618,4.4701,4.4724,4.4744,4.4474,4.4472,4.4471,0,0,4.3686,4.3734,4.384,4.3893,4.3971,4.3998,4.4023,4.4099,4.4124,4.4252,4.4241,4.4324,4.4478,4.4535,4.4585,4.4756,4.4744,4.4784,4.4865,4.4949,4.4968,4.4985,4.5049,4.5072,4.4798,4.4798,4.4798,0,4.3744,4.388,4.3895,4.3996,4.405,4.4036,4.4145,4.4196,4.4299,4.4338,4.4304,4.4498,4.455,4.4708,4.475,4.4789,4.4821,4.4775,4.4964,4.4981,4.4998,4.5059,4.5082,4.4803,4.4802,4.4802,4.4801,0,4.395,4.4044,4.412,4.4219,4.4282,4.4386,4.4419,4.4481,4.4485,4.4516,4.4648,4.471,4.481,4.4847,4.4852,4.5007,4.4987,4.4958,4.4898,4.5025,4.5083,4.5106,4.4809,4.4807,4.4806,4.4805,0,0,4.4128,4.4235,4.4263,4.431,4.4396,4.4471,4.4576,4.4672,4.4726,4.4798,4.4888,4.502,4.4994,4.5051,4.5062,4.5135,4.5271,4.5098,4.51,4.513,4.5449,4.5471,4.5498,4.5263,4.5267,4.5271,4.5443,0,4.4285,4.4468,4.4486,4.4651,4.4741,4.473,4.4822,4.4887,4.4919,4.5002,4.5038,4.5132,4.509,4.5124,4.5196,4.5239,4.5335,4.5226,4.535,4.5354,4.5332,4.5528,4.5551,4.5711,4.5465,4.5469,4.5472,0,4.4492,4.457,4.4744,4.482,4.4859,4.494,4.5032,4.511,4.5184,4.5203,4.5267,4.5269,4.538,4.5314,4.5469,4.5395,4.5447,4.5476,4.5482,4.5496,4.5422,4.5549,4.5762,4.5786,4.5507,4.5505,4.5502,0,4.4608,4.4756,4.488,4.492,4.5011,4.507,4.5111,4.5181,4.5239,4.5319,4.5358,4.545,4.5502,4.5575,4.5603,4.5552,4.5758,4.5694,4.578,4.5779,4.5825,4.5822,4.6051,4.5855,4.5854,4.5854,4.5853,0,4.4782,4.489,4.4934,4.501,4.5132,4.5152,4.5273,4.5311,4.5374,4.546,4.5457,4.5538,4.5569,4.5657,4.568,4.5806,4.5829,4.585,4.5855,4.5851,4.5849,4.5887,4.5877,4.586,4.5859,4.5857,4.5856,0,4.4933,4.4966,4.5101,4.5177,4.5199,4.5285,4.5351,4.5427,4.5458,4.5568,4.5594,4.5645,4.5748,4.5783,4.5907,4.5923,4.6072,4.6066,4.6046,4.6048,4.6132,4.6125,4.6395,4.6433,4.621,4.6212,4.6213,0,4.5043,4.5125,4.521,4.5267,4.531,4.5402,4.5461,4.5485,4.5547,4.5639,4.5705,4.5806,4.5888,4.6054,4.6103,4.6199,4.6198,4.6286,4.6212,4.6207,4.6202,4.6198,4.6208,4.63,4.6302,4.6304,4.6306,0,4.5235,4.5248,4.5332,4.5424,4.5494,4.5568,4.5639,4.5686,4.5721,4.5792,4.5896,4.596,4.6087,4.619,4.6288,4.6333,4.6327,4.6328,4.6354,4.6352,4.6338,4.6349,4.6086,4.6323,4.6321,4.632,4.6319,4.6318,4.5371,4.5445,4.5517,4.5612,4.5668,4.5735,4.581,4.5851,4.5938,4.6043,4.6053,4.6166,4.6241,4.6373,4.6423,4.6513,4.6489,4.6525,4.6535,4.6544,4.6551,4.6322,4.6531,4.6531,4.653,4.653,4.653,0,4.5566,4.5612,4.5699,4.5798,4.5874,4.5859,4.5938,4.6003,4.6102,4.6172,4.6253,4.6375,4.6474,4.6532,4.6632,4.6694,4.6694,4.672,4.6717,4.6728,4.6566,4.6535,4.6719,4.6718,4.6718,4.6718,4.6718,4.6718,4.5676,4.5802,4.5824,4.5978,4.6023,4.6133,4.618,4.6243,4.6299,4.6434,4.6516,4.6553,4.6619,4.6724,4.6816,4.683,4.6869,4.6898,4.691,4.6758,4.6739,4.6721,4.6692,4.6905,4.6905,4.7065,4.7067,4.7068]},{"header":{"parameterUnit":"m.s-1","parameterCategory":1,"la1":30.2991,"la2":30.254,"lo1":-89.0895,"lo2":-89.0444,"dy":0.0017,"dx":0.0017,"nx":28,"ny":28,"refTime":"2024-10-12T21:00:00:Z","depth":0,"parameterNumber":3,"parameterNumberName":"V-component_of_WINDS"},"data":[0,0,0,0,0,0,0,0,0,0,0,0,0,0,0,0,0,0,0,0,0,0,0,0,0,0,0,0,0,0,0,0,0,0,0,0,0,0,0,0,0,0,0,0,0,0,0,0,0,0,0,0,0,0,0,0,0,0,-1.43,-1.43,0,-1.4369,-1.437,-1.437,-1.4398,-1.4397,-1.4397,-1.4397,-1.4466,-1.4468,-1.447,0,0,0,0,0,0,0,0,0,0,0,0,0,-1.419,-1.4192,-1.43,-1.43,-1.4301,-1.4369,-1.437,-1.4371,-1.4398,-1.4397,-1.4397,-1.4397,-1.4466,-1.4468,-1.4471,0,0,0,0,0,0,0,0,0,0,0,0,0,-1.4246,-1.4193,-1.4299,-1.4323,-1.4326,-1.4368,-1.437,-1.4371,-1.4398,-1.4397,-1.4397,-1.4397,-1.4465,-1.4468,-1.4471,-1.4495,0,0,-1.448,-1.4481,0,0,0,0,0,0,0,0,-1.4243,-1.425,-1.4319,-1.4321,-1.4325,-1.4374,-1.4357,-1.4412,-1.4398,-1.437,-1.4397,-1.4397,-1.4436,-1.4441,-1.4455,-1.4498,-1.4501,-1.448,-1.4482,-1.4483,-1.4484,0,0,0,0,0,0,0,-1.4239,-1.4247,-1.4327,-1.432,-1.4323,-1.433,-1.4337,-1.4367,-1.4404,-1.4373,-1.4375,-1.4383,-1.4437,-1.4452,-1.4457,-1.4502,-1.448,-1.4483,-1.4485,-1.4486,-1.4569,-1.457,0,0,0,0,0,0,-1.4231,-1.4244,-1.4325,-1.4329,-1.4282,-1.4332,-1.4341,-1.4359,-1.4403,-1.441,-1.4383,-1.4384,-1.4447,-1.4453,-1.4459,-1.4491,-1.4483,-1.4486,-1.4488,-1.4569,-1.4569,-1.457,0,0,0,0,0,0,-1.4229,-1.4238,-1.4322,-1.4287,-1.4298,-1.4334,-1.4354,-1.436,-1.4375,-1.4411,-1.4418,-1.4391,-1.4447,-1.4455,-1.4486,-1.4493,-1.4488,-1.449,-1.4568,-1.4569,-1.457,-1.4553,0,0,0,0,0,0,-1.4226,-1.4237,-1.4247,-1.4287,-1.43,-1.4348,-1.4355,-1.4362,-1.438,-1.4382,-1.442,-1.4427,-1.4447,-1.4481,-1.4489,-1.4497,-1.4493,-1.4568,-1.4569,-1.4569,-1.4553,-1.4553,-1.4553,0,0,0,0,0,-1.4222,-1.4239,-1.4247,-1.4257,-1.4313,-1.4348,-1.4355,-1.4379,-1.438,-1.439,-1.4414,-1.4425,-1.4491,-1.4484,-1.4493,-1.4503,-1.4568,-1.4568,-1.4569,-1.4553,-1.4553,-1.4553,0,0,0,0,0,0,-1.4198,-1.4245,-1.4254,-1.4285,-1.4313,-1.4353,-1.4366,-1.4378,-1.4406,-1.4406,-1.4434,-1.4443,-1.4471,-1.449,-1.4481,-1.4529,-1.453,-1.4533,-1.4515,-1.4515,-1.4515,-1.451,-1.4495,0,0,0,0,0,-1.4197,-1.4222,-1.4261,-1.4284,-1.4298,-1.4329,-1.4346,-1.4362,-1.4391,-1.4403,-1.4429,-1.4456,-1.4483,-1.45,-1.4527,-1.4556,-1.4565,-1.4567,-1.4567,-1.4567,-1.4569,-1.4586,-1.4587,-1.4573,-1.4573,-1.4573,0,0,-1.4193,-1.4222,-1.4236,-1.428,-1.4304,-1.4329,-1.4339,-1.4365,-1.4384,-1.4406,-1.4438,-1.4458,-1.449,-1.4521,-1.4535,-1.4537,-1.4575,-1.4568,-1.4568,-1.457,-1.4587,-1.4589,-1.459,-1.4573,-1.4573,-1.4573,0,0,-1.4201,-1.4225,-1.4247,-1.4271,-1.4306,-1.4327,-1.4332,-1.4371,-1.4385,-1.4417,-1.4435,-1.4457,-1.4503,-1.4526,-1.4544,-1.4561,-1.4572,-1.4569,-1.4568,-1.4585,-1.4586,-1.4587,-1.4593,-1.4595,-1.4571,-1.4571,-1.457,0,-1.4192,-1.4231,-1.4257,-1.4283,-1.4302,-1.4324,-1.4347,-1.4368,-1.441,-1.4423,-1.4424,-1.4483,-1.4507,-1.4543,-1.4547,-1.4561,-1.4568,-1.4564,-1.4584,-1.4585,-1.4587,-1.4593,-1.4595,-1.457,-1.457,-1.457,-1.457,0,-1.4219,-1.4246,-1.426,-1.4301,-1.4321,-1.4345,-1.4375,-1.4393,-1.4407,-1.4428,-1.4461,-1.449,-1.4523,-1.4533,-1.4547,-1.4572,-1.4572,-1.4578,-1.4581,-1.4587,-1.4593,-1.4596,-1.4569,-1.4569,-1.4569,-1.4569,0,0,-1.4213,-1.4268,-1.4273,-1.4292,-1.4333,-1.4354,-1.4379,-1.4413,-1.4427,-1.4456,-1.4478,-1.4517,-1.4523,-1.4543,-1.456,-1.4574,-1.4586,-1.4579,-1.458,-1.4579,-1.4615,-1.461,-1.4612,-1.4595,-1.4595,-1.4596,-1.4613,0,-1.4226,-1.4272,-1.4297,-1.4333,-1.4358,-1.438,-1.4402,-1.4429,-1.445,-1.4474,-1.4496,-1.4524,-1.453,-1.4542,-1.4558,-1.4582,-1.4594,-1.4581,-1.4615,-1.4616,-1.4606,-1.4616,-1.461,-1.4625,-1.4615,-1.4616,-1.4616,0,-1.4247,-1.4275,-1.4314,-1.4353,-1.4364,-1.4384,-1.4417,-1.444,-1.4471,-1.4485,-1.4508,-1.4525,-1.4552,-1.4553,-1.4591,-1.4582,-1.4597,-1.4611,-1.4612,-1.4616,-1.4616,-1.462,-1.463,-1.4632,-1.462,-1.462,-1.4619,0,-1.4238,-1.4287,-1.4316,-1.4332,-1.4377,-1.4391,-1.441,-1.4442,-1.446,-1.4489,-1.4502,-1.4533,-1.455,-1.4574,-1.4599,-1.4597,-1.4635,-1.4637,-1.4647,-1.4646,-1.4653,-1.4652,-1.4666,-1.4664,-1.4663,-1.4663,-1.4663,0,-1.425,-1.4273,-1.4313,-1.4331,-1.4358,-1.4386,-1.4411,-1.4432,-1.446,-1.4483,-1.4503,-1.4524,-1.4556,-1.4581,-1.46,-1.4629,-1.4637,-1.4649,-1.4654,-1.4647,-1.4645,-1.4657,-1.4657,-1.4664,-1.4664,-1.4664,-1.4664,0,-1.4245,-1.4273,-1.4307,-1.4347,-1.4358,-1.4376,-1.4411,-1.4429,-1.4451,-1.4479,-1.4488,-1.4522,-1.4552,-1.4579,-1.4619,-1.4633,-1.4662,-1.4668,-1.4651,-1.4654,-1.4662,-1.4661,-1.4683,-1.4688,-1.4682,-1.4682,-1.4682,0,-1.425,-1.4269,-1.4312,-1.4328,-1.4348,-1.4375,-1.4394,-1.4423,-1.4442,-1.448,-1.4494,-1.4526,-1.4553,-1.46,-1.4628,-1.4659,-1.4666,-1.4672,-1.4671,-1.4663,-1.4666,-1.4665,-1.4667,-1.4671,-1.4671,-1.4671,-1.4671,0,-1.4257,-1.427,-1.4298,-1.4331,-1.4353,-1.438,-1.4408,-1.442,-1.4454,-1.4474,-1.4506,-1.4527,-1.4568,-1.46,-1.4634,-1.4654,-1.4668,-1.4671,-1.4675,-1.4668,-1.4658,-1.4664,-1.465,-1.4671,-1.4671,-1.4671,-1.4671,-1.4671,-1.4258,-1.4275,-1.4308,-1.4339,-1.4362,-1.4388,-1.4407,-1.4432,-1.4459,-1.4495,-1.451,-1.4542,-1.4574,-1.4621,-1.4641,-1.4666,-1.4669,-1.4675,-1.4676,-1.4677,-1.4676,-1.4654,-1.4673,-1.4673,-1.4673,-1.4673,-1.4673,0,-1.4266,-1.4289,-1.4316,-1.4354,-1.4378,-1.439,-1.4421,-1.444,-1.4468,-1.4497,-1.4523,-1.4559,-1.459,-1.4621,-1.4653,-1.4668,-1.4675,-1.4675,-1.4674,-1.4679,-1.4671,-1.4665,-1.4669,-1.4669,-1.4669,-1.4669,-1.4669,-1.4669,-1.4273,-1.4303,-1.4321,-1.4363,-1.4385,-1.4417,-1.4434,-1.4457,-1.448,-1.452,-1.4546,-1.4566,-1.4596,-1.4631,-1.4659,-1.4668,-1.4679,-1.4677,-1.4687,-1.4679,-1.4679,-1.4679,-1.4673,-1.4679,-1.4679,-1.4693,-1.4693,-1.4693]}]]